sat.trackr.live / text

‹ back to catalog

KUIPER-00204

NORAD 67145 · 2025-301N

PAYLOAD ACTIVE UNKNOWN

§ Identity

Operator
Country
US
Launch date
2025-12-16
Launch site
AFETR
Launch vehicle
Mass (kg)
RCS (m²)

External: N2YO · Heavens-Above · Gunter

§ Orbital elements

Epoch: 2026-05-25T04:00:03.998880Z

Period
95.89 min
Inclination
51.8944°
Eccentricity
0.0001518
Mean motion
15.01687371 rev/d
Perigee alt
560.6 km
Apogee alt
562.7 km
Semi-major
6,939.8 km
B*
-1.4688e-1
RAAN
68.2019°
Arg perigee
318.6473°
Mean anomaly
219.0240°
Rev number
571

§ Raw data

KUIPER-002041 67145U 25301N   26145.16671295 -.01758166  00000+0 -14688+0 0  99902 67145  51.8944  68.2019 0001518 318.6473 219.0240 15.01687371  5719

JSON: /api/v1/satellites/67145 · /tle

For live sub-satellite position, see the globe view (requires WebGL).

§ Visibility from observer

Set your observer location to see the next 7 days of passes ≥ 10°. The values pass through the URL so the page stays shareable.

No JS? Fill the form by hand. The geolocation button needs JavaScript.